Flag for Peru Weather past 2 weeks in Arequipa, Arequipa, Peru

Now
54 °F

Clear.


Feels Like: 54 °F
Forecast: 49 / 72 °F
Wind: No wind

Location: Arequipa Airport

Current Time: Dec 21, 2014 at 11:31:45 PM

Latest Report: Dec 21, 2014 at 10:00 PM


Visibility: 10 mi

Pressure: 30.33 "Hg

Humidity: 44%

Dew point: 32 °F

Location of ArequipaLocation

Historic Weather in Arequipa — Graph

°F

Arequipa temperature yesterday

Maximum temperature yesterday: 68 °F (at 2:00 PM)
Minimum temperature yesterday: 50 °F (at 4:00 AM)
Average temperature yesterday: 59 °F

Past Weeks' High & Low Weather Summary

 TemperatureHumidityPressure
High72 °F (Dec 7, 11:00 AM)82% (Dec 10, 1:00 AM)30.39 "Hg (Dec 10, 1:00 AM)
Low34 °F (Dec 9, 2:00 AM)12% (Dec 14, 12:00 PM)30.18 "Hg (Dec 8, 2:00 PM)
Average59 °F44%30.28 "Hg
* Reported Dec 6 10:00 PM — Dec 21 10:00 PM, Arequipa, Weather by CustomWeather, © 2014

Note: Actual official high and low records may vary slightly from our data, if they occured in-between our weather recording intervals... More about our weather records

Advertising

Arequipa weather history for previous 24 hours

 ConditionsComfort  
Time TempWeatherWind HumidityBarometerVisibility
10:00 PM
Dec 21
54 °FClear.No wind44%30.33 "Hg10 mi
9:00 PM55 °FClear.3 mph44%30.33 "Hg10 mi
8:00 PM55 °FClear.No wind55%30.30 "Hg10 mi
7:00 PM55 °FClear.5 mph55%30.30 "Hg10 mi
6:00 PM59 °FPassing clouds.7 mph45%30.27 "HgN/A
5:00 PM61 °FSunny.10 mph39%30.27 "Hg10 mi
4:00 PM63 °FPassing clouds.13 mph37%30.27 "HgN/A
3:00 PM66 °FPassing clouds.12 mph35%30.24 "HgN/A
2:00 PM66 °FPassing clouds.14 mph35%30.27 "HgN/A
1:00 PM66 °FPassing clouds.14 mph32%30.27 "HgN/A
12:00 PM68 °FPassing clouds.12 mph30%30.27 "HgN/A
11:00 AM68 °FPassing clouds.13 mph28%30.27 "HgN/A
10:00 AM66 °FPassing clouds.7 mph22%30.27 "HgN/A
9:00 AM64 °FPassing clouds.7 mph26%30.27 "HgN/A
8:00 AM61 °FPassing clouds.5 mph27%30.27 "HgN/A
7:00 AM63 °FPassing clouds.6 mph24%30.27 "HgN/A
6:00 AM52 °FPassing clouds.8 mph38%30.24 "HgN/A
5:00 AM50 °FClear.5 mph43%30.24 "Hg10 mi
4:00 AM54 °FClear.2 mph35%30.24 "Hg10 mi
3:00 AM52 °FClear.6 mph44%30.24 "Hg10 mi
2:00 AM52 °FClear.3 mph41%30.24 "Hg10 mi
1:00 AM54 °FClear.5 mph54%30.27 "Hg10 mi
12:00 AM54 °FClear.5 mph51%30.30 "Hg10 mi
11:00 PM
Dec 20
54 °FClear.5 mph38%30.33 "Hg10 mi
Weather by CustomWeather, © 2014

See weather overviewHow to use our weather pages